This is the latest recevied weather packets stored in our database for station/object KG7KID-7. If no packets are shown the sender has not sent any weather packets the latest 10 day(s).
| Time | Temp. | Humidity | Pressure | Rain* | Wind** | Luminosity | Snow |
|---|---|---|---|---|---|---|---|
| 1777512464 | 23.89° C | 14% | 974.9 hPa | 0 mm | - | - | - |
| 1777512452 | 23.89° C | 14% | 974.9 hPa | 0 mm | - | - | - |
| 1777512153 | 23.89° C | 14% | 974.9 hPa | 0 mm | - | - | - |
| 1777511750 | 24.44° C | 13% | 974.6 hPa | 0 mm | - | - | - |
| 1777511553 | 24.44° C | 13% | 974.6 hPa | 0 mm | - | - | - |
| 1777511253 | 24.44° C | 13% | 974.6 hPa | 0 mm | - | - | - |
| 1777510975 | 25° C | 13% | 974.6 hPa | 0 mm | - | - | - |
| 1777510703 | 25° C | 13% | 974.7 hPa | 0 mm | - | - | - |
| 1777510653 | 25° C | 13% | 974.6 hPa | 0 mm | - | - | - |
| 1777510353 | 25° C | 13% | 974.7 hPa | 0 mm | - | - | - |
| 1777509452 | 25.56° C | 12% | 974.3 hPa | 0 mm | - | - | - |
| 1777508553 | 26.67° C | 12% | 974.3 hPa | 0 mm | - | - | - |
| 1777508103 | 26.11° C | 12% | 974.4 hPa | 0 mm | - | - | - |
| 1777507802 | 26.11° C | 12% | 974.5 hPa | 0 mm | - | - | - |
| 1777507503 | 26.11° C | 12% | 974.4 hPa | 0 mm | - | - | - |
| 1777506488 | 27.22° C | 11% | 974.4 hPa | 0 mm | - | - | - |
| 1777506226 | 27.22° C | 11% | 974.4 hPa | 0 mm | - | - | - |
| 1777505626 | 27.78° C | 11% | 974.6 hPa | 0 mm | - | - | - |
| 1777505327 | 27.78° C | 12% | 974.6 hPa | 0 mm | - | - | - |
| 1777505028 | 27.78° C | 12% | 974.7 hPa | 0 mm | - | - | - |
| 1777504727 | 27.78° C | 12% | 974.4 hPa | 0 mm | - | - | - |
| 1777504499 | 27.78° C | 11% | 974.5 hPa | 0 mm | - | - | - |
| 1777504427 | 27.78° C | 11% | 974.5 hPa | 0 mm | - | - | - |
| 1777504126 | 27.78° C | 11% | 974.5 hPa | 0 mm | - | - | - |
| 1777503869 | 27.78° C | 11% | 974.7 hPa | 0 mm | - | - | - |
* Rain latest hour (hover to see other rain measurements)
** Current wind speed in m/s (hover to see current wind gust speed)